Cosmos 1633 - Orbit

View from above orbital plane
View from above orbital plane
View from above satellite
View from above satellite

Ground track
Ground track

The orbit data is extracted from the following two-line orbital elements,

1 15592U 85020A   13139.83124692  .00005286  00000-0  28530-3 0  1678
2 15592 082.5445 357.7052 0019546 000.4567 125.5879 15.14368979537687
Epoch (UTC): 19 May 2013 19:56:59
Eccentricity: 0.0019546
inclination: 82.5445°
perigee height: 509 km
apogee height: 536 km
right ascension of ascending node: 357.7052°
argument of perigee: 0.4567°
revolutions per day: 15.14368979
mean anomaly at epoch: 125.5879°
orbit number at epoch: 53768

The dashed part of the orbit path shows where the satellite is in the earth's shadow,  

Developed and maintained by Chris Peat, Heavens-Above GmbH. Please read the updated FAQ before sending e-mail. Imprint. DLR